Location: Praha
(50.0830°N, 14.4670°E)
Time: 19:54:18
(UTC+02:00)

ISS - Pass Details

Date: 03 May 2021
Orbit: 418 x 422 km, 51.6° (Epoch: 13 April)

Event Time Altitude Azimuth Distance (km) Brightness Sun altitude
Exits shadow 03:33:30 35° 185° (S) 701 -3.1 -16.0°
Maximum altitude 03:34:14 41° 151° (SSE) 627 -3.1 -15.9°
Drops below altitude 10° 03:37:26 10° 80° (E) 1,508 -0.2 -15.6°
Sets 03:39:37 0° 73° (ENE) 2,376 1.1 -15.3°
